Location: Unspecified
(0.0000°N, 0.0000°E)
Time: 11:23:20
(UTC+00:00)

Vanguard 3 - Pass Details

Date: 09 December 2017
Orbit: 508 x 3264 km, 33.4° (Epoch: 18 January)

Event Time Altitude Azimuth Distance (km) Brightness Sun altitude
Rises 06:07:01 0° 222° (SW) 6,896 11.7 3.4°
Reaches altitude 10° 06:14:03 10° 207° (SSW) 5,457 11.3 5.0°
Maximum altitude 06:24:10 20° 166° (SSE) 3,802 11.2 7.3°
Drops below altitude 10° 06:31:26 10° 122° (ESE) 3,811 13.1 9.0°
Sets 06:35:05 0° 105° (ESE) 4,359 13.0 9.8°
